DW2099 Weather Reports


time (UTC)temp
C
wind
direction
speed
KPH
gust
KPH
rain 1hr
cm
rain 24hr
cm
rain mn
cm
humidity
%
barometer
mb
20260508122517 17 0.0 1.6 0.00 0.00 0.00 85 1014.3
20260508121517 17 0.0 1.6 0.00 0.00 0.00 85 1014.4
20260508120516 17 0.0 3.2 0.00 0.00 0.00 85 1014.4
20260508115517 17 0.0 3.2 0.00 0.00 0.00 85 1014.6
20260508114517 17 90 1.6 3.2 0.00 0.00 0.00 84 1014.7
20260508113517 17 0.0 1.6 0.00 0.00 0.00 85 1014.9
20260508112536 17 0.0 3.2 0.00 0.00 0.00 85 1014.6
20260508111516 17 0.0 4.8 0.00 0.00 0.00 85 1014.3
20260508110516 17 158 1.6 4.8 0.00 0.00 0.00 85 1014.5
20260508105536 17 0.0 1.6 0.00 0.00 0.00 85 1014.7
20260508104517 17 0.0 3.2 0.00 0.00 0.00 85 1014.7
20260508103557 17 0.0 1.6 0.00 0.00 0.00 85 1014.5
20260508102517 17 180 1.6 3.2 0.00 0.00 0.00 84 1014.5
20260508101516 17 158 1.6 4.8 0.00 0.00 0.00 84 1014.4
20260508100516 17 0.0 3.2 0.00 0.00 0.00 84 1014.5
20260508095516 17 0.0 3.2 0.00 0.00 0.00 84 1014.3
20260508094517 17 0.0 3.2 0.00 0.00 0.00 84 1014.5
20260508093516 17 180 1.6 4.8 0.00 0.00 0.00 84 1014.4
20260508092536 17 0.0 1.6 0.00 0.00 0.00 84 1014.5
20260508091516 17 0.0 1.6 0.00 0.00 0.00 84 1014.3
20260508090516 17 158 1.6 4.8 0.00 0.00 0.00 83 1014.1
20260508085536 17 0.0 0.0 0.00 0.00 0.00 84 1014.2
20260508084516 17 0.0 1.6 0.00 0.00 0.00 83 1014.5
20260508083516 17 0.0 0.0 0.00 0.00 0.00 83 1014.2
20260508082516 17 0.0 0.0 0.00 0.00 0.00 83 1014.2
20260508081536 17 0.0 0.0 0.00 0.00 0.00 83 1014.3
20260508080516 17 0.0 1.6 0.00 0.00 0.00 83 1014.4
20260508075516 17 0.0 0.0 0.00 0.00 0.00 83 1014.4
20260508074516 17 0.0 1.6 0.00 0.00 0.00 84 1014.3
20260508073516 17 0.0 4.8 0.00 0.00 0.00 84 1014.1
20260508072536 17 0.0 0.0 0.00 0.00 0.00 84 1014.3
20260508071516 17 0.0 4.8 0.00 0.00 0.00 84 1014.6
20260508070516 17 0.0 4.8 0.00 0.00 0.00 84 1014.7
20260508065516 17 0.0 3.2 0.00 0.00 0.00 84 1014.9
20260508064516 17 0.0 0.0 0.00 0.00 0.00 84 1015.4
20260508063536 17 0.0 1.6 0.00 0.00 0.00 84 1015.3
20260508062516 17 0.0 1.6 0.00 0.00 0.00 84 1015.7
20260508061536 17 0.0 1.6 0.00 0.00 0.00 84 1016.0
20260508060516 17 0.0 3.2 0.00 0.00 0.00 84 1015.6
20260508055516 16 0.0 1.6 0.00 0.00 0.00 84 1015.3
20260508054516 16 0.0 0.0 0.00 0.00 0.00 84 1014.9
20260508053536 16 0.0 3.2 0.00 0.00 0.00 84 1014.8
20260508052516 16 0.0 3.2 0.00 0.00 0.00 83 1014.9
20260508051516 16 158 1.6 6.4 0.00 0.00 0.00 83 1014.4
20260508050516 17 0.0 3.2 0.00 0.00 0.00 83 1014.8
20260508045516 17 0.0 1.6 0.00 0.00 0.00 83 1014.7
20260508044516 17 0.0 1.6 0.00 0.00 0.00 82 1014.7
20260508043516 17 0.0 0.0 0.00 0.00 0.00 82 1015.2
20260508042516 17 0.0 3.2 0.00 0.00 0.00 81 1015.6
20260508041516 17 0.0 1.6 0.00 0.00 0.00 81 1015.8
20260508040516 17 158 1.6 4.8 0.00 0.00 0.00 81 1016.1
20260508035516 17 180 1.6 6.4 0.00 0.00 0.00 81 1016.1
20260508034516 17 135 1.6 6.4 0.00 0.00 0.00 81 1016.2
20260508033516 17 0.0 1.6 0.00 0.00 0.00 80 1015.5
20260508032516 17 0.0 1.6 0.00 0.00 0.00 80 1015.3
20260508031516 17 0.0 3.2 0.00 0.00 0.00 79 1015.3
20260508030536 17 0.0 1.6 0.00 0.00 0.00 79 1015.0
20260508025536 17 0.0 1.6 0.00 0.00 0.00 79 1014.5
20260508024516 17 0.0 1.6 0.00 0.00 0.00 79 1014.1
20260508023516 17 0.0 3.2 0.00 0.00 0.00 79 1014.2
20260508022516 17 0.0 3.2 0.00 0.00 0.00 79 1014.0
20260508021517 17 0.0 1.6 0.00 0.00 0.00 79 1014.5
20260508020516 17 0.0 1.6 0.00 0.00 0.00 79 1014.7
20260508015516 17 0.0 4.8 0.00 0.00 0.00 79 1014.5
20260508014556 17 135 1.6 4.8 0.00 0.00 0.00 78 1014.8
20260508013516 18 158 1.6 4.8 0.00 0.00 0.00 78 1014.1
20260508012516 18 0.0 4.8 0.00 0.00 0.00 77 1014.1
20260508011516 18 0.0 3.2 0.00 0.00 0.00 76 1014.3
20260508010516 18 0.0 3.2 0.00 0.00 0.00 76 1014.5
20260508005516 18 0.0 3.2 0.00 0.00 0.00 75 1014.9
20260508004516 18 158 1.6 4.8 0.00 0.00 0.00 74 1015.2
20260508003516 18 158 1.6 6.4 0.00 0.00 0.00 74 1015.4
20260508002536 19 0.0 3.2 0.00 0.00 0.00 73 1015.6
20260508001516 19 113 1.6 6.4 0.00 0.00 0.00 72 1015.4
20260508000536 20 135 3.2 9.7 0.00 0.00 0.00 71 1015.3
20260507235516 20 135 3.2 9.7 0.00 0.00 0.00 71 1015.6
20260507234515 20 203 3.2 12.9 0.00 0.00 0.00 70 1015.4
20260507233515 20 158 3.2 8.0 0.00 0.00 0.00 70 1015.5
20260507232515 20 90 1.6 12.9 0.00 0.00 0.00 70 1015.2
20260507231515 20 113 1.6 9.7 0.00 0.00 0.00 69 1015.5
20260507230516 21 180 1.6 8.0 0.00 0.00 0.00 69 1015.9
20260507225517 20 135 4.8 11.3 0.00 0.00 0.00 68 1016.0
20260507224518 20 203 3.2 9.7 0.00 0.00 0.00 69 1016.2
20260507223515 21 180 4.8 9.7 0.00 0.00 0.00 69 1016.2
20260507222517 21 113 3.2 11.3 0.00 0.00 0.00 69 1016.1
20260507221536 21 113 3.2 11.3 0.00 0.00 0.00 70 1015.8
20260507220517 21 203 4.8 11.3 0.00 0.00 0.00 70 1016.0
20260507215517 20 158 3.2 11.3 0.00 0.00 0.00 71 1015.9
20260507214518 20 113 3.2 11.3 0.00 0.00 0.00 71 1016.0
20260507213518 20 135 3.2 11.3 0.00 0.00 0.00 70 1016.2
20260507212517 20 203 3.2 11.3 0.00 0.00 0.00 71 1016.0
20260507211517 20 113 3.2 9.7 0.00 0.00 0.00 72 1016.2
20260507210517 20 90 1.6 9.7 0.00 0.00 0.00 73 1015.7
20260507205517 19 135 1.6 3.2 0.00 0.00 0.00 73 1016.1
20260507204537 19 180 3.2 11.3 0.00 0.00 0.00 73 1016.0
20260507203518 19 0.0 3.2 0.00 0.00 0.00 74 1016.1
20260507202537 19 293 1.6 8.0 0.00 0.00 0.00 73 1016.3
20260507201518 19 135 3.2 11.3 0.00 0.00 0.00 73 1016.5
20260507200517 19 158 3.2 12.9 0.00 0.00 0.00 73 1015.8
20260507195538 19 90 4.8 12.9 0.00 0.00 0.00 72 1016.2
20260507194517 19 135 3.2 14.5 0.00 0.00 0.00 73 1016.7
20260507193517 20 135 3.2 12.9 0.00 0.00 0.00 72 1017.1
20260507192517 20 180 4.8 9.7 0.00 0.00 0.00 70 1016.9
20260507191537 21 158 4.8 12.9 0.00 0.00 0.00 70 1017.1
20260507190517 21 270 1.6 6.4 0.00 0.00 0.00 69 1017.2
20260507185557 21 135 1.6 9.7 0.00 0.00 0.00 70 1017.3
20260507184517 21 270 1.6 8.0 0.00 0.00 0.00 71 1016.9
20260507183517 20 158 4.8 16.1 0.00 0.00 0.00 70 1016.8
20260507182517 20 248 3.2 6.4 0.00 0.00 0.00 71 1017.1
20260507181517 20 225 1.6 8.0 0.00 0.00 0.00 72 1017.4
20260507180517 19 338 3.2 8.0 0.00 0.00 0.00 75 1017.2
20260507175517 19 315 1.6 4.8 0.00 0.00 0.00 75 1016.9
20260507174517 18 90 4.8 14.5 0.00 0.00 0.00 75 1017.6
20260507173537 18 248 1.6 8.0 0.00 0.00 0.00 77 1018.1
20260507172517 17 158 1.6 6.4 0.00 0.00 0.00 78 1018.2
20260507171517 17 90 3.2 6.4 0.00 0.00 0.00 78 1018.7
20260507170517 17 113 3.2 11.3 0.00 0.00 0.00 79 1018.6
20260507165517 16 68 3.2 9.7 0.00 0.00 0.00 79 1018.5
20260507164517 16 113 3.2 6.4 0.00 0.00 0.00 79 1019.0
20260507163517 16 203 3.2 11.3 0.00 0.00 0.00 79 1018.6
20260507162537 16 135 3.2 9.7 0.00 0.00 0.00 80 1018.6
20260507161517 16 113 3.2 9.7 0.00 0.00 0.00 81 1018.6
20260507160517 16 203 4.8 12.9 0.00 0.00 0.00 81 1018.8
20260507155517 16 135 4.8 17.7 0.00 0.00 0.00 81 1018.7
20260507154517 16 180 3.2 16.1 0.00 0.00 0.00 82 1018.7
20260507153517 16 113 3.2 9.7 0.00 0.00 0.00 82 1018.5
20260507152517 16 113 6.4 16.1 0.00 0.00 0.00 82 1018.6
20260507151517 16 158 6.4 17.7 0.00 0.00 0.00 83 1018.4
20260507150517 16 135 1.6 6.4 0.00 0.00 0.00 84 1018.4
20260507145517 16 158 1.6 6.4 0.00 0.00 0.00 84 1018.6
20260507144516 16 113 1.6 6.4 0.00 0.00 0.00 84 1018.5
20260507143517 16 225 1.6 8.0 0.00 0.00 0.00 85 1018.5
20260507142517 16 113 3.2 9.7 0.00 0.00 0.00 85 1018.3
20260507141517 16 135 3.2 12.9 0.00 0.00 0.00 84 1017.9
20260507140517 16 158 3.2 16.1 0.00 0.00 0.00 85 1017.7
20260507135557 16 113 3.2 9.7 0.00 0.00 0.00 85 1017.9
20260507134517 16 248 1.6 8.0 0.00 0.00 0.00 85 1017.9
20260507133517 16 203 4.8 14.5 0.00 0.00 0.00 85 1018.2
20260507132517 16 113 3.2 9.7 0.00 0.00 0.00 85 1017.9
20260507131517 16 113 3.2 12.9 0.00 0.00 0.00 85 1017.7
20260507130517 16 180 3.2 12.9 0.00 0.00 0.00 85 1017.6
20260507125517 16 180 6.4 22.5 0.00 0.00 0.00 86 1017.7
20260507124517 16 135 6.4 12.9 0.00 0.00 0.00 86 1017.4
20260507123516 16 203 4.8 22.5 0.00 0.00 0.00 87 1017.5